Regional Weather Roundup
Issued by NWS Northern Indiana

Home | Current Version | Previous Version | Text Only | Print | Product List | Glossary On
Versions: 1 2 3 4 5 6 7 8 9 10 11 12 13 14 15 16 17 18 19 20 21 22 23 24 25 26 27 28 29 30 31 32 33 34 35 36 37 38 39 40 41 42 43 44 45 46 47 48 49 50
000
ASUS43 KIWX 262100
RWRIWX

KIWX WEATHER ROUNDUP
NATIONAL WEATHER SERVICE NORTHERN INDIANA
500 PM EDT THU APR 26 2018

NOTE: "FAIR" INDICATES FEW OR NO CLOUDS BELOW 12,000 FEET WITH NO
SIGNIFICANT WEATHER AND/OR OBSTRUCTIONS TO VISIBILITY.

* THESE STATIONS ARE NOT UNDER NWS QUALITY CONTROL. THEY ALSO MAY NOT
  REPORT WEATHER SUCH AS PRECIPITATION OR FOG.

INZ001>027-262200-
NORTHERN INDIANA

CITY           SKY/WX    TMP DP  RH WIND       PRES   REMARKS
GARY*          PTSUNNY   63  18  17 E10       29.90
MICHIGAN CITY* FAIR      55  30  38 N10       29.91F
KNOX*          FAIR      63  28  27 N3        29.87F
SOUTH BEND     FAIR      62  36  37 NW9       29.90S
GOSHEN         FAIR      62  36  37 VRB3      29.87F
MONTICELLO*    FAIR      64  28  25 E5        29.87F
ROCHESTER*     FAIR      64  34  32 SE3       29.87F
WARSAW*        FAIR      61  36  39 N6        29.87F
FORT WAYNE     FAIR      66  39  37 CALM      29.87F
PERU/GRISSOM   FAIR      64  33  32 CALM      29.85F

$$
INZ028>050-262200-
CENTRAL INDIANA

CITY           SKY/WX    TMP DP  RH WIND       PRES   REMARKS
LAFAYETTE      FAIR      64  35  34 N10G17    29.87F
KOKOMO*        FAIR      65  36  34 VRB7      29.87F
MUNCIE*        FAIR      67  34  29 VRB6      29.84F
INDIANAPOLIS   FAIR      65  32  29 N6        29.85F

$$
MIZ043>046-050>051-056>058-064>065-071>073-077>080-262200-
SOUTHWEST LOWER MICHIGAN

CITY           SKY/WX    TMP DP  RH WIND       PRES   REMARKS
BATTLE CREEK   FAIR      64  27  24 NW6       29.86F
BENTON HARBOR  FAIR      53  31  42 VRB6      29.91F
COLDWATER*     FAIR      64  32  30 W8        29.86F
HILLSDALE*     FAIR      61  32  33 W5        29.86F
HOLLAND        FAIR      56  29  35 W12       29.90F
GRAND RAPIDS   PTSUNNY   61  25  25 W12       29.88F
KALAMAZOO      FAIR      65  28  24 W12G17    29.86F
THREE RIVERS*  FAIR      65  32  29 NW6       29.87F

$$
OHZ001>008-015>018-024>025-262200-
NORTHWEST OHIO

CITY           SKY/WX    TMP DP  RH WIND       PRES   REMARKS
WAUSEON*       FAIR      63  32  31 W9        29.86F
FINDLAY        FAIR      64  40  41 NW7       29.85F
TOLEDO EXPRESS FAIR      62  35  36 VRB7      29.86F
TOLEDO METCALF FAIR      61  34  36 VRB6      29.87F
LIMA           FAIR      62  39  42 VRB3      29.85F

$$
AND FOR LAKE MICHIGAN COASTAL AND OPEN LAKE BUOY OBSERVATIONS

STATION/POSITION TEMP    WIND        PRES    VSBY  WAVE
                 AIR SEA DIR/SP/G                  HT/PER
                 (F)     (DEG/KT/KT) (MB)    (MI)  (FT/S)
CALUMET HARBOR    51      60/  8/ 10 1011.9F
MICHIGAN CITY     43      20/  4/  4   N/A
BURNS HARBOR      47      60/  5/  7 1013.5F
SAINT JOSEPH      46     360/  5/  6 1014.2
4 MI NW BRIDGMAN  44 44   20/  4/  6 1013.8F         1/ 2

$$
&&




USA.gov is the U.S. government's official web portal to all federal, state and local government web resources and services.